IT9LCP-2 Weather Reports


Display with metric or nautical units.
time (UTC)temp
F
wind
direction
speed
MPH
gust
MPH
rain 1hr
in
rain 24hr
in
rain mn
in
humidity
%
barometer
mb
20260510234200 59 356 1.0 2.0 0.00 0.03 0.00 79 1014.7
20260510233200 59 0 1.0 3.0 0.00 0.03 0.00 78 1014.9
20260510232200 60 345 2.0 2.0 0.00 0.03 0.00 76 1014.9
20260510231200 61 357 2.0 2.0 0.00 0.03 0.00 75 1014.8
20260510230200 60 356 1.0 2.0 0.00 0.03 0.00 76 1014.9
20260510225200 60 357 2.0 3.0 0.00 0.03 0.00 77 1015.0
20260510224200 60 357 2.0 3.0 0.00 0.03 0.00 76 1014.9
20260510223200 61 353 2.0 3.0 0.00 0.03 0.00 75 1015.0
20260510222200 61 350 1.0 3.0 0.00 0.03 0.00 75 1014.9
20260510221200 62 348 1.0 3.0 0.00 0.03 0.00 73 1015.1
20260510220200 62 340 1.0 3.0 0.00 0.03 0.00 73 1014.9
20260510214200 62 310 1.0 3.0 0.00 0.03 0.03 72 1014.8
20260510213200 62 336 1.0 3.0 0.00 0.03 0.03 73 1015.0
20260510212200 62 348 1.0 3.0 0.00 0.03 0.03 74 1014.9
20260510211200 62 349 1.0 3.0 0.00 0.03 0.03 74 1014.9
20260510210200 62 350 2.0 3.0 0.00 0.03 0.03 73 1015.0
20260510205159 62 349 1.0 2.0 0.00 0.03 0.03 72 1014.8
20260510204200 63 312 2.0 3.0 0.00 0.03 0.03 70 1014.6
20260510202200 64 299 1.0 2.0 0.00 0.03 0.03 68 1015.1
20260510201159 65 348 1.0 2.0 0.00 0.03 0.03 66 1015.0
20260510200200 65 339 1.0 2.0 0.00 0.03 0.03 65 1015.1
20260510195159 65 320 1.0 2.0 0.00 0.03 0.03 64 1015.2
20260510194159 65 343 1.0 2.0 0.00 0.03 0.03 65 1015.3
20260510193200 65 331 1.0 2.0 0.00 0.03 0.03 63 1015.3
20260510191159 65 338 1.0 2.0 0.00 0.03 0.03 62 1015.0
20260510182200 67 44 1.0 1.0 0.00 0.03 0.03 64 1014.6
20260510181159 68 59 1.0 2.0 0.00 0.03 0.03 59 1014.7
20260510175159 69 53 0.0 2.0 0.00 0.03 0.03 53 1014.5
20260510174159 70 62 1.0 2.0 0.00 0.03 0.03 51 1014.4
20260510173159 70 72 1.0 2.0 0.00 0.03 0.03 47 1014.4
20260510172159 71 75 1.0 2.0 0.00 0.03 0.03 45 1014.6
20260510171200 71 59 1.0 2.0 0.00 0.03 0.03 44 1014.4
20260510170159 71 58 1.0 3.0 0.00 0.03 0.03 47 1014.6
20260510165159 71 45 1.0 2.0 0.00 0.03 0.03 45 1014.3
20260510164159 71 22 1.0 2.0 0.00 0.03 0.03 47 1014.5
20260510163159 71 61 2.0 3.0 0.00 0.03 0.03 45 1014.6
20260510161159 70 91 2.0 3.0 0.00 0.03 0.03 49 1014.9
20260510160159 70 57 1.0 3.0 0.00 0.03 0.03 49 1015.0
20260510155200 71 76 2.0 3.0 0.00 0.03 0.03 49 1014.9
20260510154159 71 84 2.0 3.0 0.00 0.03 0.03 48 1015.0
20260510153159 71 89 2.0 5.0 0.00 0.03 0.03 49 1015.0
20260510152159 71 93 2.0 3.0 0.00 0.03 0.03 48 1015.0
20260510151159 72 89 3.0 5.0 0.00 0.03 0.03 44 1014.9
20260510150159 71 91 1.0 5.0 0.00 0.03 0.03 45 1014.8
20260510145159 71 94 3.0 5.0 0.00 0.03 0.03 43 1015.2
20260510144200 71 90 2.0 5.0 0.00 0.03 0.03 45 1015.4
20260510143200 72 111 2.0 3.0 0.00 0.03 0.03 41 1015.4
20260510142202 71 92 2.0 5.0 0.00 0.03 0.03 41 1015.5
20260510141201 72 119 3.0 5.0 0.00 0.03 0.03 42 1015.7
20260510140159 72 124 2.0 5.0 0.00 0.03 0.03 40 1015.8
20260510135159 72 145 2.0 3.0 0.00 0.03 0.03 40 1015.8
20260510134200 72 118 2.0 5.0 0.00 0.03 0.03 38 1015.7
20260510133200 72 109 2.0 5.0 0.00 0.03 0.03 41 1015.9
20260510132200 71 67 2.0 5.0 0.00 0.03 0.03 47 1015.9
20260510131210 71 124 2.0 5.0 0.00 0.03 0.03 48 1015.9
20260510130159 72 68 2.0 5.0 0.00 0.03 0.03 44 1016.0
20260510125200 71 75 2.0 5.0 0.00 0.03 0.03 45 1016.0
20260510124212 71 87 2.0 5.0 0.00 0.03 0.03 46 1016.4
20260510123200 72 102 2.0 5.0 0.00 0.03 0.03 46 1016.5
20260510122159 71 91 3.0 5.0 0.00 0.03 0.03 48 1016.7
20260510115201 71 89 3.0 5.0 0.00 0.03 0.03 52 1017.0
20260510114200 71 114 2.0 5.0 0.00 0.03 0.03 53 1017.0
20260510113200 71 117 2.0 5.0 0.00 0.03 0.03 55 1016.9
20260510112200 70 92 1.0 5.0 0.00 0.03 0.03 55 1016.9
20260510110159 70 54 1.0 3.0 0.00 0.03 0.03 56 1017.2
20260510104159 69 178 1.0 5.0 0.00 0.03 0.03 57 1017.4
20260510103159 70 74 2.0 5.0 0.00 0.03 0.03 55 1017.5
20260510102159 70 113 2.0 5.0 0.00 0.03 0.03 55 1017.4
20260510101200 70 208 2.0 3.0 0.00 0.03 0.03 55 1017.5
20260510100159 70 160 2.0 3.0 0.00 0.03 0.03 55 1017.4
20260510095159 70 116 2.0 5.0 0.00 0.03 0.03 55 1017.2
20260510094159 69 94 3.0 5.0 0.00 0.03 0.03 57 1017.4
20260510093159 70 120 1.0 3.0 0.00 0.03 0.03 55 1017.4
20260510092159 69 79 2.0 3.0 0.00 0.03 0.03 57 1017.4
20260510091159 69 357 1.0 5.0 0.00 0.03 0.03 58 1017.2
20260510090159 68 78 2.0 3.0 0.00 0.03 0.03 58 1017.4
20260510085159 69 126 2.0 3.0 0.00 0.03 0.03 59 1017.5
20260510084159 67 92 1.0 3.0 0.00 0.03 0.03 62 1017.6
20260510083159 68 155 1.0 3.0 0.00 0.03 0.03 63 1017.3
20260510082159 67 84 2.0 2.0 0.00 0.03 0.03 63 1017.4
20260510081159 66 149 2.0 3.0 0.00 0.03 0.03 65 1017.2
20260510080159 66 118 2.0 3.0 0.00 0.03 0.03 68 1017.1
20260510075159 66 95 2.0 5.0 0.00 0.03 0.03 67 1017.1
20260510074159 66 90 2.0 3.0 0.00 0.03 0.03 68 1017.1
20260510073159 65 55 2.0 3.0 0.00 0.03 0.03 71 1017.1
20260510071200 65 63 2.0 5.0 0.00 0.03 0.03 75 1017.2
20260510070159 64 77 2.0 5.0 0.00 0.03 0.03 80 1017.1
20260510065159 64 57 2.0 3.0 0.00 0.03 0.03 82 1017.0
20260510064200 64 57 2.0 5.0 0.00 0.03 0.03 82 1017.1
20260510063159 64 64 1.0 3.0 0.00 0.03 0.03 82 1017.3
20260510062158 65 46 2.0 3.0 0.00 0.03 0.03 81 1017.2
20260510061159 64 44 1.0 5.0 0.00 0.03 0.03 83 1017.3
20260510060159 63 44 2.0 6.0 0.00 0.03 0.03 86 1017.1
20260510054159 63 39 2.0 3.0 0.00 0.03 0.03 87 1016.7
20260510051159 61 351 2.0 5.0 0.00 0.03 0.03 90 1016.9
20260510050158 60 348 2.0 5.0 0.01 0.03 0.03 91 1016.5
20260510045159 60 339 1.0 3.0 0.01 0.03 0.03 91 1016.7
20260510044159 60 339 2.0 3.0 0.01 0.03 0.03 92 1016.5
20260510043159 60 346 2.0 5.0 0.01 0.03 0.03 92 1016.6
20260510042159 60 325 2.0 3.0 0.01 0.03 0.03 91 1016.6
20260510041159 60 327 2.0 3.0 0.01 0.03 0.03 91 1016.6
20260510040159 60 352 2.0 5.0 0.00 0.02 0.02 91 1016.6
20260510035159 60 351 2.0 3.0 0.00 0.02 0.02 91 1016.5
20260510034159 60 351 2.0 5.0 0.00 0.02 0.02 92 1016.7
20260510033159 60 31 2.0 5.0 0.00 0.02 0.02 93 1017.2
20260510032159 60 36 2.0 5.0 0.00 0.02 0.02 92 1017.9
20260510031159 60 358 1.0 3.0 0.00 0.02 0.02 92 1018.3
20260510030159 60 354 2.0 3.0 0.01 0.02 0.02 91 1017.9
20260510025159 60 26 2.0 3.0 0.01 0.02 0.02 91 1018.4
20260510023159 60 8 2.0 6.0 0.02 0.02 0.02 92 1017.7
20260510021159 60 6 3.0 6.0 0.02 0.02 0.02 91 1018.7
20260510015159 61 6 2.0 2.0 0.01 0.01 0.01 87 1018.5
20260510013159 61 336 1.0 2.0 0.00 0.00 0.00 84 1019.3
20260510011159 60 345 2.0 3.0 0.00 0.00 0.00 85 1018.9
20260510010158 60 350 2.0 3.0 0.00 0.00 0.00 85 1017.7
20260510005159 60 348 2.0 3.0 0.00 0.00 0.00 86 1016.7
20260510004158 60 353 1.0 2.0 0.00 0.00 0.00 86 1016.9
20260510003159 60 349 2.0 2.0 0.00 0.00 0.00 87 1017.0
20260510002159 59 356 1.0 3.0 0.00 0.00 0.00 88 1017.9
20260510001159 60 347 1.0 3.0 0.00 0.00 0.00 88 1017.9